Beaver Creek, USA 16 day weather forecast

Slopes altitude range 2255 m - 3485m

Number of lifts: 17 Pistes: 148km

In some cases the lift and piste totals shown are for the ski domain (e.g. Three Valleys) rather than individual resort (e.g. Courchevel)

Overview

The 16 day weather forecast is fully updated 4 times every day.

    • Wed 26 JUN 2019
    • Wed 26
    • 4C 5C
    • Thu 27 JUN 2019
    • Thu 27
    • 5C 6C
    • Fri 28 JUN 2019
    • Fri 28
    • 6C 8C
    • Sat 29 JUN 2019
    • Sat 29
    • 8C 10C
    • Sun 30 JUN 2019
    • Sun 30
    • 6C 7C
    • Mon 01 JUL 2019
    • Mon 01
    • 6C 7C
    • Tue 02 JUL 2019
    • Tue 02
    • 5C 6C
    • Wed 03 JUL 2019
    • Wed 03
    • 5C 7C
    • Thu 04 JUL 2019
    • Thu 04
    • 7C 9C
    • Fri 05 JUL 2019
    • Fri 05
    • 7C 10C
    • Sat 06 JUL 2019
    • Sat 06
    • 7C 10C
    • Sun 07 JUL 2019
    • Sun 07
    • 7C 10C
    • Mon 08 JUL 2019
    • Mon 08
    • 8C 10C
    • Tue 09 JUL 2019
    • Tue 09
    • 7C 9C
    • Wed 10 JUL 2019
    • Wed 10
    • 7C 10C
    • Thu 11 JUL 2019
    • Thu 11
    • 7C 10C

Date:

Time Type 0°C level Temp Chill Snow Cloud Speed Gust Dir Press
3:00 4655m 5°C 5_8 0cm 64% 8mph 8mph 1016mB
6:00 4676m 4°C 4_8 0cm 80% 8mph 9mph 1018mB
9:00 4705m 4°C 4_8 0cm 17% 8mph 8mph 1018mB
12:00 4667m 5°C 5_8 0cm 58% 8mph 8mph 1018mB
15:00 4617m 15°C 15_8 0cm 94% 8mph 18mph 1017mB
18:00 4720m 17°C 17_13 0cm 88% 13mph 17mph 1014mB
21:00 4831m 17°C 17_15 0cm 43% 15mph 20mph 1014mB
0:00 4758m 16°C 16_15 0cm 56% 15mph 23mph 1014mB
3:00 4734m 7°C 7_5 0cm 37% 5mph 6mph 1017mB
6:00 4704m 6°C 6_8 0cm 19% 8mph 8mph 1020mB
9:00 4642m 5°C 5_9 0cm 0% 9mph 10mph 1021mB
12:00 4578m 6°C 6_9 0cm 0% 9mph 9mph 1022mB
15:00 4522m 14°C 14_15 0cm 3% 15mph 28mph 1020mB
18:00 4700m 18°C 18_16 0cm 1% 16mph 24mph 1018mB
21:00 4899m 18°C 18_15 0cm 0% 15mph 22mph 1016mB
0:00 4940m 18°C 18_12 0cm 4% 12mph 19mph 1015mB
3:00 4877m 9°C 9_6 0cm 65% 6mph 7mph 1019mB
6:00 4870m 8°C 8_6 0cm 32% 6mph 7mph 1020mB
9:00 4758m 7°C 7_9 0cm 57% 9mph 9mph 1022mB
12:00 4783m 8°C 8_9 0cm 30% 9mph 14mph 1023mB
15:00 4819m 15°C 15_11 0cm 0% 11mph 24mph 1021mB
18:00 4865m 19°C 19_13 0cm 0% 13mph 19mph 1019mB
21:00 5004m 19°C 19_13 0cm 13% 13mph 16mph 1017mB
0:00 5001m 19°C 19_11 0cm 6% 11mph 16mph 1015mB
3:00 4962m 11°C 11_5 0cm 0% 5mph 5mph 1018mB
6:00 4927m 9°C 9_7 0cm 4% 7mph 8mph 1020mB
9:00 4865m 8°C 8_8 0cm 39% 8mph 9mph 1021mB
12:00 4837m 10°C 10_8 0cm 59% 8mph 10mph 1023mB
15:00 4884m 16°C 16_2 0cm 100% 2mph 5mph 1021mB
18:00 4928m 20°C 20_6 0cm 100% 6mph 11mph 1018mB
21:00 4986m 19°C 19_6 0cm 100% 6mph 9mph 1017mB
0:00 4820m 9°C 9_7 0cm 100% 7mph 9mph 1019mB
3:00 4767m 6°C 6_7 0cm 100% 7mph 7mph 1022mB
6:00 4864m 6°C 6_5 0cm 99% 5mph 6mph 1022mB
9:00 4984m 6°C 6_2 0cm 99% 2mph 3mph 1022mB
12:00 4662m 7°C 7_3 0cm 95% 3mph 4mph 1023mB
15:00 4845m 13°C 13_3 0cm 100% 3mph 2mph 1021mB
18:00 4664m 17°C 17_4 0cm 93% 4mph 4mph 1018mB
21:00 4902m 14°C 14_2 0cm 77% 2mph 3mph 1017mB
0:00 4740m 10°C 10_3 0cm 89% 3mph 3mph 1018mB
3:00 4655m 7°C 7_2 0cm 83% 2mph 3mph 1020mB
6:00 4606m 7°C 7_4 0cm 90% 4mph 4mph 1020mB
9:00 4586m 6°C 6_4 0cm 66% 4mph 5mph 1020mB
12:00 4531m 7°C 7_4 0cm 65% 4mph 5mph 1020mB
15:00 4507m 13°C 13_3 0cm 52% 3mph 8mph 1018mB
18:00 4656m 17°C 17_7 0cm 42% 7mph 5mph 1016mB
21:00 4674m 16°C 16_4 0cm 100% 4mph 6mph 1014mB
0:00 4726m 8°C 8_9 0cm 99% 9mph 10mph 1015mB
3:00 4702m 6°C 6_6 0cm 76% 6mph 6mph 1017mB
6:00 4654m 6°C 6_6 0cm 66% 6mph 7mph 1017mB
9:00 4620m 6°C 6_6 0cm 81% 6mph 7mph 1016mB
12:00 4628m 6°C 6_6 0cm 45% 6mph 7mph 1016mB
15:00 4608m 15°C 15_3 0cm 0% 3mph 10mph 1014mB
18:00 4642m 17°C 17_7 0cm 29% 7mph 9mph 1012mB
21:00 4652m 15°C 15_7 0cm 74% 7mph 10mph 1010mB
0:00 4744m 15°C 15_12 0cm 53% 12mph 19mph 1010mB
3:00 4692m 8°C 8_2 0cm 36% 2mph 3mph 1013mB
6:00 4654m 7°C 7_6 0cm 20% 6mph 7mph 1014mB
9:00 4622m 6°C 6_7 0cm 0% 7mph 8mph 1014mB
12:00 4584m 7°C 7_7 0cm 0% 7mph 7mph 1016mB
15:00 4605m 16°C 16_3 0cm 0% 3mph 4mph 1013mB
18:00 4668m 21°C 21_9 0cm 0% 9mph 13mph 1010mB
21:00 4780m 21°C 21_12 0cm 1% 12mph 15mph 1009mB
0:00 4726m 20°C 20_9 0cm 32% 9mph 12mph 1009mB
3:00 4705m 12°C 12_5 0cm 50% 5mph 6mph 1013mB
6:00 4709m 9°C 9_5 0cm 60% 5mph 6mph 1015mB
9:00 4663m 7°C 7_4 0cm 0% 4mph 5mph 1015mB
12:00 4644m 9°C 9_4 0cm 0% 4mph 4mph 1016mB
15:00 4610m 18°C 18_3 0cm 0% 3mph 4mph 1015mB
18:00 4725m 22°C 22_9 0cm 0% 9mph 12mph 1013mB
21:00 4879m 22°C 22_11 0cm 2% 11mph 13mph 1012mB
0:00 4935m 22°C 22_11 0cm 12% 11mph 14mph 1011mB
3:00 4904m 12°C 12_2 0cm 1% 2mph 3mph 1014mB
6:00 4825m 10°C 10_5 0cm 1% 5mph 6mph 1018mB
9:00 4818m 8°C 8_4 0cm 0% 4mph 5mph 1019mB
12:00 4850m 10°C 10_3 0cm 0% 3mph 4mph 1019mB
15:00 4826m 18°C 18_2 0cm 0% 2mph 2mph 1018mB
18:00 4852m 23°C 23_10 0cm 0% 10mph 11mph 1015mB
21:00 4988m 22°C 22_13 0cm 4% 13mph 16mph 1014mB
0:00 5028m 22°C 22_12 0cm 19% 12mph 15mph 1015mB
Afternoon 0mm 0 4799m 10°C 10_3 0cm 0% 3mph 4mph 1021mB
Morning 0.0208333mm 0 4961m 22°C 22_9 0cm 18% 9mph 11mph 1015mB
Afternoon 0mm 0 4828m 10°C 10_2 0cm 32% 2mph 2mph 1020mB
Morning 0.104167mm 0.1875 4957m 21°C 21_7 0cm 31% 7mph 8mph 1015mB
Afternoon 0mm 0 4817m 10°C 10_3 0cm 44% 3mph 4mph 1021mB
Morning 0.520833mm 0.4375 4680m 14°C 14_8 0cm 83% 8mph 16mph 1017mB
Afternoon 0mm 0 4924m 9°C 9_1 0cm 70% 1mph 1mph 1020mB
Morning 0.458333mm 0.9375 4978m 15°C 15_15 0cm 76% 15mph 20mph 1014mB
Afternoon 0mm 0 5022m 10°C 10_2 0cm 97% 2mph 3mph 1020mB
Morning 1.16667mm 1.6875 5004m 11°C 11_7 0cm 78% 7mph 9mph 1015mB
Afternoon 0mm 0 4869m 10°C 10_2 0cm 78% 2mph 3mph 1022mB
Morning 1.08333mm 2.875 4931m 16°C 16_1 0cm 85% 1mph 4mph 1018mB

16 day outlook at a glance

Forecast issued: 6/26/2019 8:04:13 AM

Chat

Your comments and questions. In a resort? Let us know what it's like!


Characters left 250

For terms and conditions see Readers Comments on the Cookie and privacy policy page.